User: anonymous   Login
Location: Boursonne
(49.2024°N, 3.0468°E)
Time: 02:51:05
(UTC+00:00)
Language:

FALCON 9 DEB - Orbit

View from above orbital plane
View from above orbital plane
View from above satellite
View from above satellite

Ground track
Ground track

The orbit data is extracted from the following two-line orbital elements,

1 44295U 19029BN  21127.41058240  .00002136  00000-0  52070-4 0  9992
2 44295  53.0025  16.3361 0009436  35.7408 324.4227 15.45862883111568
Epoch (UTC): 07 May 2021 09:51:14
Eccentricity: 0.0009436
inclination: 53.0025°
perigee height: 422 km
apogee height: 435 km
right ascension of ascending node: 16.3361°
argument of perigee: 35.7408°
revolutions per day: 15.45862883
mean anomaly at epoch: 324.4227°
orbit number at epoch: 11156

The dashed part of the orbit path shows where the satellite is in the earth's shadow,  

DLR